User: anonymous   Login
Location: Alpha Ridge Park
(39.3209°N, 76.9128°W)
Time: 11:10:56
(UTC-04:00)
Language:

Tiros 1 despin weight - Orbit

View from above orbital plane
View from above orbital plane
View from above satellite
View from above satellite

Ground track
Ground track

The orbit data is extracted from the following two-line orbital elements,

1   115U 60002D   19138.83119109 -.00000011  00000-0  25809-4 0  9990
2   115  48.1681  16.4020 0035038 305.0746  54.6883 14.83441784154237
Epoch (UTC): 18 May 2019 19:56:54
Eccentricity: 0.0035038
inclination: 48.1681°
perigee height: 594 km
apogee height: 643 km
right ascension of ascending node: 16.4020°
argument of perigee: 305.0746°
revolutions per day: 14.83441784
mean anomaly at epoch: 54.6883°
orbit number at epoch: 15423

The dashed part of the orbit path shows where the satellite is in the earth's shadow,  

DLR